OH2FDL-2 Weather Reports


Display with metric or nautical units.
time (UTC)temp
F
wind
direction
speed
MPH
gust
MPH
rain 1hr
in
rain 24hr
in
rain mn
in
humidity
%
barometer
mb
20260506233018 29 0.0 0.0 0.00 0.00 0.00 10 1010.9
20260506231518 29 0.0 0.0 0.00 0.00 0.00 10 1010.9
20260506230022 30 0.0 0.0 0.00 0.00 0.00 10 1010.9
20260506224519 30 0.0 0.0 0.00 0.00 0.00 10 1010.9
20260506223018 31 0.0 0.0 0.00 0.00 0.00 10 1010.9
20260506220018 32 0.0 0.0 0.00 0.00 0.00 10 1010.7
20260506213018 32 0.0 0.0 0.00 0.00 0.00 99 1010.5
20260506210018 33 0.0 0.0 0.00 0.00 0.00 94 1010.3
20260506204522 33 0.0 0.0 0.00 0.00 0.00 92 1010.2
20260506203023 34 0.0 0.0 0.00 0.00 0.00 90 1010.2
20260506201517 34 0.0 0.0 0.00 0.00 0.00 87 1010.2
20260506200018 36 0.0 0.0 0.00 0.00 0.00 85 1010.2
20260506194517 37 0.0 0.0 0.00 0.00 0.00 83 1010.1
20260506193028 38 0.0 0.0 0.00 0.00 0.00 80 1010.0
20260506191518 39 0.0 0.0 0.00 0.00 0.00 78 1009.9
20260506190018 40 0.0 0.0 0.00 0.00 0.00 75 1009.9
20260506184518 41 0.0 0.0 0.00 0.00 0.00 72 1009.9
20260506183018 43 0.0 0.0 0.00 0.00 0.00 69 1009.8
20260506181518 44 0.0 0.0 0.00 0.00 0.00 66 1009.8
20260506180023 45 0.0 0.0 0.00 0.00 0.00 63 1009.8
20260506174517 47 0.0 0.0 0.00 0.00 0.00 61 1009.8
20260506173018 47 0.0 0.0 0.00 0.00 0.00 60 1009.8
20260506171518 48 0.0 0.0 0.00 0.00 0.00 58 1009.7
20260506170018 49 0.0 0.0 0.00 0.00 0.00 57 1009.5
20260506164518 50 0.0 0.0 0.00 0.00 0.00 56 1009.5
20260506163018 51 0.0 0.0 0.00 0.00 0.00 54 1009.5
20260506161517 51 0.0 0.0 0.00 0.00 0.00 53 1009.4
20260506160018 52 0.0 0.0 0.00 0.00 0.00 52 1009.4
20260506154517 52 0.0 0.0 0.00 0.00 0.00 52 1009.4
20260506153018 52 0.0 0.0 0.00 0.00 0.00 51 1009.5
20260506151517 54 0.0 0.0 0.00 0.00 0.00 50 1009.5
20260506144522 54 0.0 0.0 0.00 0.00 0.00 50 1009.6
20260506143018 55 0.0 0.0 0.00 0.00 0.00 49 1009.5
20260506134517 53 0.0 0.0 0.00 0.00 0.00 50 1009.5
20260506133018 55 0.0 0.0 0.00 0.00 0.00 48 1009.5
20260506131518 56 0.0 0.0 0.00 0.00 0.00 48 1009.4
20260506130018 55 0.0 0.0 0.00 0.00 0.00 46 1009.4
20260506124517 55 0.0 0.0 0.00 0.00 0.00 44 1009.4
20260506123018 55 0.0 0.0 0.00 0.00 0.00 44 1009.4
20260506121518 54 0.0 0.0 0.00 0.00 0.00 44 1009.5
20260506120018 53 0.0 0.0 0.00 0.00 0.00 45 1009.4
20260506114517 53 0.0 0.0 0.00 0.00 0.00 45 1009.5
20260506113017 54 0.0 0.0 0.00 0.00 0.00 45 1009.4
20260506111517 54 0.0 0.0 0.00 0.00 0.00 46 1009.4
20260506110018 54 0.0 0.0 0.00 0.00 0.00 48 1009.4
20260506104518 53 0.0 0.0 0.00 0.00 0.00 50 1009.3
20260506103018 52 0.0 0.0 0.00 0.00 0.00 52 1009.3
20260506101518 51 0.0 0.0 0.00 0.00 0.00 52 1009.4
20260506100017 51 0.0 0.0 0.00 0.00 0.00 53 1009.3
20260506094517 55 0.0 0.0 0.00 0.00 0.00 55 1009.2
20260506093018 54 0.0 0.0 0.00 0.00 0.00 58 1009.2
20260506091517 58 0.0 0.0 0.00 0.00 0.00 64 1009.0
20260506090018 54 0.0 0.0 0.00 0.00 0.00 67 1009.0
20260506084518 52 0.0 0.0 0.00 0.00 0.00 73 1009.0
20260506081518 49 0.0 0.0 0.00 0.00 0.00 80 1008.8
20260506073018 46 0.0 0.0 0.00 0.00 0.00 92 1008.7
20260506071517 45 0.0 0.0 0.00 0.00 0.00 96 1008.6
20260506061523 43 0.0 0.0 0.00 0.00 0.00 10 1008.3
20260506044518 37 0.0 0.0 0.00 0.00 0.00 10 1007.4
20260506043018 36 0.0 0.0 0.00 0.00 0.00 10 1007.3
20260506041518 34 0.0 0.0 0.00 0.00 0.00 10 1007.1
20260506040018 32 0.0 0.0 0.00 0.00 0.00 10 1007.0
20260506034518 30 0.0 0.0 0.00 0.00 0.00 10 1006.9
20260506033018 29 0.0 0.0 0.00 0.00 0.00 10 1006.7
20260506031518 28 0.0 0.0 0.00 0.00 0.00 10 1006.5
20260506024518 27 0.0 0.0 0.00 0.00 0.00 10 1006.2
20260506023017 26 0.0 0.0 0.00 0.00 0.00 10 1006.1
20260506021518 26 0.0 0.0 0.00 0.00 0.00 10 1005.9
20260506014518 26 0.0 0.0 0.00 0.00 0.00 10 1005.7
20260506013018 27 0.0 0.0 0.00 0.00 0.00 10 1005.7
20260506010018 27 0.0 0.0 0.00 0.00 0.00 10 1005.5
20260506004518 27 0.0 0.0 0.00 0.00 0.00 10 1005.3